User: anonymous   Login
Location: Unspecified
(0.0000°N, 0.0000°E)
Time: 15:24:47
(UTC+00:00)
Language:

Azur - Orbit

View from above orbital plane
View from above orbital plane
View from above satellite
View from above satellite

Ground track
Ground track

The orbit data is extracted from the following two-line orbital elements,

1 04221U 69097A   21333.90108283  .00009737  00000-0  42800-3 0  9996
2 04221 102.6890 243.2506 0599831 351.9340   7.2508 14.32317979481246
Epoch (UTC): 29 November 2021 21:37:33
Eccentricity: 0.0599831
inclination: 102.6890°
perigee height: 354 km
apogee height: 1213 km
right ascension of ascending node: 243.2506°
argument of perigee: 351.9340°
revolutions per day: 14.32317979
mean anomaly at epoch: 7.2508°
orbit number at epoch: 48124

The dashed part of the orbit path shows where the satellite is in the earth's shadow,  

DLR